#timestamp,LO_Frequency,Hit,StdDev 
1711317615.7,286046996.9,P
1711317635.5,286046996.6,N
1711317655.4,286046998.7,N
1711317675.2,286046998.8,N
1711317695.0,286046999.6,N
1711317695.9,286046999.6,N
1711317715.8,286046997.1,N
1711317735.6,286046996.7,N
1711317755.5,286046997.2,N
1711317775.0,286046999.0,N
1711317775.9,286046999.0,N
1711317795.8,286046999.2,N
1711317815.6,286046999.2,N
1711317835.4,286047000.7,N
1711317855.3,286047000.0,N
1711317875.1,286047001.0,N
1711317895.9,286047000.3,N
1711317915.7,286046999.8,N
1711317935.5,286047000.4,N
1711317955.4,286047002.8,N
1711317975.2,286047001.0,N
1711317995.0,286046998.4,N
1711317995.9,286046998.4,N
1711318015.8,286047000.6,N
1711318035.6,286046998.1,N
1711318055.5,286046998.5,N
1711318075.3,286046999.0,N
1711318095.1,286046999.0,N
1711318115.9,286046996.5,N
1711318135.7,286046998.4,N
1711318155.5,286046999.1,N
1711318175.4,286046997.5,N
1711318195.2,286046997.4,N
1711318215.0,286046997.5,N
1711318216.0,286046997.5,N
1711318235.8,286046999.6,N
1711318255.6,286046996.5,N
1711318275.5,286046999.6,N
1711318295.3,286046998.9,N
1711318315.1,286046996.6,N
1711318335.9,286046998.8,N
1711318355.7,286046998.3,N
1711318375.6,286046999.2,N
1711318395.4,286046999.6,N
1711318415.2,286046998.7,N
1711318435.1,286046998.6,N
1711318436.0,286046998.6,N
1711318455.8,286046998.8,N
1711318475.6,286046998.9,N
1711318495.5,286046998.4,N
1711318515.3,286046996.8,Y
1711318535.2,286046998.4,P
1711318555.9,286046998.5,P
1711318575.7,286047000.9,P
1711318595.6,286047000.9,N
1711318615.4,286046998.2,N
1711318635.2,286047000.1,N
1711318655.1,286047000.6,N
1711318656.0,286047000.6,N
1711318675.8,286047000.5,N
1711318695.7,286047000.1,N
1711318715.5,286046999.7,N
1711318735.3,286047001.5,N
1711318755.2,286047000.1,N
1711318775.0,286047000.3,N
1711318775.9,286047000.3,N
1711318795.7,286046998.2,N
1711318815.6,286046998.5,N
1711318835.4,286046998.1,N
1711318855.3,286046998.5,N
1711318875.1,286046998.2,N
1711318876.0,286046998.2,N
1711318895.8,286046998.2,N
1711318915.7,286047001.2,N
1711318935.5,286047000.5,N
1711318955.3,286046999.7,N
1711318975.2,286047002.8,N
1711318995.0,286046999.8,N
1711318995.9,286046999.8,N
1711319015.8,286047002.8,N
1711319035.6,286047001.4,N
1711319055.4,286047002.7,N
1711319075.3,286047002.8,N
1711319095.1,286046999.9,N
1711319115.8,286046999.8,N
1711319135.7,286047000.5,N
1711319155.5,286046999.7,N
1711319175.4,286047002.4,N
1711319195.2,286047002.1,N
1711319215.0,286047004.4,N
1711319215.9,286047004.4,N
1711319235.8,286047001.5,N
1711319255.6,286047002.1,N
1711319275.4,286047004.0,N
1711319295.3,286047001.7,N
1711319315.1,286047004.0,N
1711319335.9,286047004.4,N
1711319355.7,286047001.7,N
1711319375.5,286047004.4,N
1711319395.4,286047003.9,N
1711319415.2,286047001.4,N
1711319435.0,286047002.2,N
1711319435.9,286047002.2,N
1711319455.8,286047002.6,N
1711319475.6,286047002.7,N
1711319495.5,286046999.8,N
1711319515.3,286047002.4,N
1711319535.1,286047004.4,N
1711319555.9,286047004.0,N
1711319575.7,286047001.3,N
1711319595.6,286047001.8,N
1711319615.4,286047001.7,N
1711319635.2,286047002.1,N
1711319655.1,286047001.6,N
1711319656.0,286047001.6,N
1711319675.8,286047001.4,N
1711319695.7,286047001.6,N
1711319715.5,286047001.3,N
1711319735.3,286047004.2,Y
1711319755.2,286047000.6,P
1711319775.0,286046998.8,N
1711319775.9,286046998.8,N
1711319795.8,286046998.4,N
1711319815.6,286047000.7,N
1711319835.4,286046998.5,N
1711319855.3,286046999.2,N
1711319875.1,286046996.5,N
1711319895.8,286046998.9,N
1711319915.7,286046998.2,N
1711319935.5,286046998.1,N
1711319955.4,286046999.5,N
1711319975.2,286046996.6,N
1711319995.0,286046997.1,N
1711319995.9,286046997.1,N
1711320015.8,286046996.7,N
1711320035.6,286046997.1,N
1711320055.4,286046996.9,N
1711320075.3,286046997.5,N
1711320095.1,286046996.5,N
1711320115.9,286046996.8,N
1711320135.7,286046996.6,N
1711320155.5,286046998.5,N
1711320175.4,286046998.5,N
1711320195.2,286046998.5,N
1711320215.0,286046998.4,N
1711320215.9,286046998.4,N
1711320235.8,286046999.4,N
1711320255.6,286046998.8,N
1711320275.5,286046998.5,N
1711320295.3,286046999.1,N
1711320315.1,286046999.4,N
1711320335.9,286046999.6,N
1711320355.7,286046998.8,N
1711320375.5,286046999.2,N
1711320395.4,286046998.8,N
1711320415.2,286046999.3,N
1711320435.1,286046999.0,N
1711320436.0,286046999.0,N
1711320455.8,286046999.2,N
1711320475.6,286046998.9,N
1711320495.5,286046998.1,N
1711320515.3,286046998.5,N
1711320535.1,286046999.0,N
1711320555.9,286047001.0,N
1711320575.7,286047000.6,N
1711320595.6,286047000.4,N
1711320615.4,286047000.0,N
1711320635.2,286046998.7,N
1711320655.1,286047000.8,N
1711320656.0,286047011.9,Y
1711320675.8,286047000.5,P
1711320695.7,286047000.0,N
1711320715.5,286046998.1,P
1711320735.3,286047000.5,N
1711320755.2,286047000.5,N
1711320775.0,286047000.2,N
1711320775.9,286047000.2,N
1711320795.8,286047001.2,N
1711320815.6,286046999.9,N
1711320835.4,286047001.4,N
1711320855.3,286047001.6,N
1711320875.1,286047002.5,N
1711320895.9,286047002.3,N
1711320915.7,286047000.6,N
1711320935.5,286047000.8,N
1711320955.4,286047000.3,N
1711320975.2,286047000.9,N
1711320995.0,286047002.6,N
1711320995.9,286047002.6,N
1711321015.8,286047002.4,N
1711321035.6,286047002.7,N
1711321055.5,286047002.7,N
1711321075.3,286047000.2,N
1711321095.1,286046999.9,N
1711321115.9,286046998.2,N
1711321135.7,286046998.8,N
1711321155.6,286047000.4,N
1711321175.4,286046998.2,N
1711321195.2,286046998.1,N
